Wind_Speed
7 6 6 6 5 4 3 1 2 4 4 4 4 5 6 7 7 7 8 8 7 7 6 7 7 7 6 6 6 6 7 7 6 6 6 7 7 7 8 8 8 8 8 8
8 7 8 7 5 4 3 2 3 5 4 4 4 5 6 8 8 8 8 7 7 7 7 7 7 7 7 7 7 7 7 8 7 7 7 8 8 8 8 9 9 9 9 9
11 10 10 8 6 4 3 3 4 5 4 5 5 6 7 8 8 8 7 7 7 7 7 7 7 7 7 7 7 8 8 8 8 8 8 9 9 9 9 9 9 10 10 10
14 12 11 9 7 5 5 5 4 4 4 6 5 6 8 8 8 8 8 7 6 7 7 7 8 7 7 7 8 8 8 9 8 8 9 9 9 10 11 11 11 12 12 12
15 14 12 10 9 8 6 6 5 5 5 6 7 6 8 9 9 8 8 7 7 7 7 8 9 8 8 8 9 9 9 9 9 9 9 9 10 10 11 12 12 13 13 12
17 16 14 12 10 9 8 7 7 7 7 7 8 7 8 9 10 9 9 8 8 8 8 9 10 9 9 9 9 10 10 9 9 9 9 10 10 11 12 12 13 13 13 13
17 17 15 14 12 11 10 8 7 7 8 9 9 8 8 9 9 9 9 8 9 9 9 9 10 10 10 9 9 10 10 10 10 9 10 11 11 11 12 12 13 13 13 13
17 16 16 15 13 12 11 9 9 9 9 10 11 9 9 9 9 9 9 9 9 9 9 9 9 10 10 10 10 10 11 10 10 10 10 11 11 12 12 13 13 13 14 14
18 17 17 16 15 13 12 11 10 11 10 10 11 11 10 9 9 10 10 10 9 9 10 10 11 11 10 10 11 11 11 11 11 11 11 12 12 12 13 13 14 14 14 15
20 18 18 17 16 15 13 12 12 11 12 10 11 11 10 9 10 10 10 10 10 10 11 11 11 11 10 11 11 11 11 11 12 12 12 13 13 13 13 14 14 14 15 15
20 19 19 18 17 16 15 14 14 13 12 11 11 12 12 11 11 11 11 11 11 11 11 11 11 11 11 11 11 12 12 12 13 13 13 13 13 13 14 14 15 15 15 15
21 21 20 20 19 19 18 17 15 15 15 13 12 13 14 12 12 12 12 12 12 11 11 11 11 11 11 12 12 12 13 13 13 13 13 13 13 13 13 14 15 16 16 16
22 22 21 20 20 21 20 19 17 16 16 15 13 15 16 14 13 13 14 14 14 13 13 12 12 12 12 12 12 12 13 13 14 14 14 14 14 14 15 15 16 16 17 16
23 23 22 21 20 21 21 20 19 17 17 16 16 16 15 15 15 15 15 15 15 14 14 13 13 13 13 13 13 14 14 14 14 15 15 15 15 16 16 16 17 17 17 17
24 25 24 24 23 23 23 21 20 19 19 18 18 17 17 16 17 17 16 16 15 14 14 14 15 15 14 14 15 15 16 16 16 17 17 17 17 17 17 17 18 18 18 18
25 25 25 25 25 25 24 23 22 22 21 21 19 19 18 18 18 18 17 17 16 16 16 16 17 16 16 16 16 17 17 17 17 18 18 18 18 19 18 18 19 19 19 19
27 26 26 25 26 25 25 23 23 23 22 21 20 20 20 20 20 19 19 19 18 18 18 18 18 17 18 18 18 18 18 18 19 19 19 19 20 20 20 20 19 19 20 20
28 26 26 25 26 26 23 23 23 23 23 23 22 22 22 21 21 21 20 20 20 20 19 19 19 19 19 20 20 20 20 20 21 21 21 21 21 21 21 21 21 20 21 21
28 27 27 26 25 24 24 24 23 24 24 23 23 23 22 21 21 21 21 20 20 20 20 20 20 20 20 20 21 21 22 22 22 23 23 23 23 22 22 22 22 22 22 23
29 28 28 28 27 25 25 24 23 23 24 23 22 22 22 21 21 22 21 22 22 21 21 21 21 21 21 22 22 23 23 23 24 24 24 24 23 23 22 23 23 23 23 24
30 29 29 28 27 25 26 25 23 24 24 23 23 23 23 23 23 23 23 23 23 23 23 23 23 22 23 23 24 23 24 25 25 25 25 25 24 24 24 24 24 24 25 25
31 30 30 29 28 27 27 25 25 25 25 24 24 23 24 24 24 24 24 24 25 24 24 24 24 24 24 24 24 25 25 26 27 27 26 25 25 25 25 25 26 26 27 27
31 31 31 30 30 30 29 28 27 26 26 26 26 25 25 25 25 25 25 25 25 25 25 25 24 25 25 26 26 26 26 27 28 27 26 25 25 26 26 27 27 27 28 28
31 31 31 31 31 30 30 29 28 28 27 27 27 27 27 26 26 26 26 25 26 26 26 25 25 25 26 27 27 27 27 27 26 26 26 25 25 26 27 28 28 28 28 28
31 31 30 30 30 30 30 29 29 29 28 28 28 28 27 27 27 27 26 26 27 27 26 26 26 27 27 27 27 28 27 26 26 26 26 26 26 26 27 27 28 28 28 28
31 32 32 32 31 31 31 31 30 29 28 28 27 27 27 27 27 27 27 27 27 27 27 27 27 28 27 27 27 27 27 26 26 26 27 27 27 27 28 29 29 28 28 28
Wind_Direction
189 183 180 188 195 202 201 191 351 340 337 351 3 3 0 358 358 354 349 346 348 349 346 350 355 353 349 347 346 345 344 342 342 342 340 336 333 330 328 326 324 322 316 312
196 197 197 196 209 218 219 251 305 315 321 334 344 346 342 340 343 346 345 344 346 343 344 345 344 343 342 342 341 341 341 339 338 339 339 334 330 329 327 327 326 325 322 315
202 202 205 207 214 227 246 271 288 301 310 329 336 342 337 333 337 341 342 341 343 344 346 348 343 345 341 341 343 342 341 340 337 335 333 334 332 327 325 323 323 324 322 318
211 210 214 218 224 239 253 265 281 304 324 334 337 331 328 329 333 336 340 337 336 340 341 343 339 339 339 338 338 339 339 338 336 333 333 333 332 329 326 326 323 321 321 317
217 220 221 224 229 237 242 260 279 295 306 322 331 328 319 325 330 333 331 330 329 333 334 336 335 332 330 330 333 333 334 334 333 333 331 331 331 330 329 327 325 322 320 317
220 223 223 226 230 241 249 266 284 294 302 305 315 319 312 315 319 321 318 318 318 321 326 327 329 327 325 324 327 329 329 329 330 332 332 331 331 331 331 329 327 325 323 319
223 227 228 231 234 245 250 264 282 292 297 298 307 312 308 307 311 313 312 312 312 314 318 320 325 324 323 321 321 324 327 327 327 327 328 329 329 329 328 329 327 325 322 320
224 230 232 231 235 243 249 256 262 271 279 291 305 310 313 311 307 308 308 306 308 311 314 317 322 321 319 316 316 321 323 324 324 323 325 327 326 326 326 325 325 323 321 320
221 228 230 231 235 239 248 255 261 270 278 285 294 303 313 313 307 307 307 306 303 305 309 313 318 317 314 312 314 317 321 322 321 320 321 324 324 323 323 323 322 322 322 320
219 225 231 234 237 240 244 255 262 265 271 278 291 298 304 305 305 304 304 303 301 300 305 310 312 313 312 310 311 313 317 318 320 318 316 317 320 321 322 321 319 320 320 320
221 226 233 236 239 245 249 255 261 264 264 273 285 291 296 297 300 300 300 300 300 298 299 306 309 308 309 309 311 313 314 314 316 317 316 316 316 318 319 320 321 322 321 320
226 230 233 240 243 244 249 252 259 264 270 272 276 286 291 292 295 297 296 296 295 293 293 299 306 307 307 308 309 309 310 310 310 312 313 314 315 316 317 319 320 322 323 321
232 233 236 241 246 248 250 251 254 257 262 268 271 281 286 288 290 292 294 293 291 289 289 294 301 302 304 305 307 306 309 310 311 312 311 312 314 317 318 318 317 316 318 319
232 234 234 237 242 250 253 254 254 254 257 266 272 276 281 286 289 289 291 292 290 288 288 291 296 298 298 300 303 304 306 306 309 312 309 310 312 314 317 318 317 317 315 314
234 236 237 239 242 247 251 254 256 256 259 263 270 273 276 279 284 287 287 288 290 287 285 285 289 292 293 295 299 302 304 304 305 309 308 308 309 310 312 314 315 315 314 311
237 240 242 245 246 248 251 253 255 258 263 265 268 271 271 273 279 282 283 284 286 285 283 282 283 284 287 290 293 298 301 301 302 304 304 307 309 309 310 311 313 314 313 312
240 243 245 248 250 251 252 253 254 257 260 262 265 268 269 273 278 279 280 281 281 280 280 281 282 283 284 286 289 293 296 297 300 301 302 304 306 306 308 309 310 310 311 311
241 243 246 248 250 251 252 252 254 257 258 259 262 264 266 271 277 278 279 280 279 279 279 280 281 282 283 285 288 290 293 294 297 299 301 302 303 303 304 306 307 308 309 308
241 243 246 247 251 254 254 253 256 258 258 259 262 264 267 269 274 276 277 280 280 279 278 278 280 282 285 286 287 288 291 292 293 295 298 300 301 301 302 303 305 306 307 308
241 243 246 247 249 252 254 254 257 257 258 258 261 264 266 269 272 273 275 278 279 277 277 278 280 281 283 285 287 288 290 291 292 293 294 296 298 300 301 302 303 306 306 306
241 243 244 247 250 253 253 254 256 255 257 260 262 263 263 266 268 272 274 276 277 276 276 278 280 281 281 284 286 286 288 289 290 291 292 293 296 298 299 300 301 303 305 305
242 244 245 247 249 250 253 254 254 256 259 261 260 261 262 264 267 270 273 274 275 275 275 277 278 280 282 284 285 285 286 287 289 290 291 292 294 296 297 298 299 300 302 302
242 243 245 247 249 250 253 254 254 256 258 259 259 260 263 265 267 269 271 272 272 272 273 275 276 279 282 284 285 285 286 287 287 287 288 289 291 294 295 297 298 299 300 302
243 244 246 248 249 250 251 252 254 256 257 257 258 260 261 263 266 268 269 270 270 271 273 276 278 279 281 282 284 286 287 287 286 286 287 287 289 292 294 296 298 299 300 302
243 243 245 247 248 249 250 251 252 254 255 256 258 260 262 263 265 266 268 270 271 274 276 277 277 279 281 282 284 285 285 284 284 285 286 287 289 291 293 295 297 298 298 300
245 245 245 247 248 250 250 251 253 254 255 257 259 262 265 266 266 267 268 270 273 275 276 276 277 279 281 282 283 284 283 283 283 284 286 288 289 290 292 294 296 297 297 298
Height
5918 5921 5922 5922 5923 5924 5924 5924 5924 5923 5921 5920 5919 5918 5917 5915 5913 5912 5910 5909 5907 5906 5904 5903 5901 5900 5899 5897 5895 5894 5892 5890 5889 5888 5886 5885 5883 5882 5880 5879 5877 5876 5875 5873
5918 5920 5920 5921 5922 5922 5923 5923 5924 5923 5921 5920 5919 5918 5916 5914 5913 5911 5910 5909 5907 5905 5904 5902 5901 5899 5898 5896 5895 5893 5891 5890 5888 5887 5885 5884 5882 5881 5879 5877 5876 5874 5873 5871
5916 5919 5918 5920 5921 5921 5922 5923 5922 5921 5920 5920 5919 5918 5917 5914 5913 5911 5910 5908 5906 5905 5903 5902 5900 5899 5897 5895 5894 5892 5891 5889 5888 5886 5885 5883 5881 5879 5878 5876 5874 5873 5871 5869
5913 5915 5917 5918 5919 5920 5921 5921 5921 5920 5920 5920 5919 5919 5916 5914 5912 5911 5909 5907 5906 5904 5903 5901 5900 5898 5896 5895 5893 5892 5890 5889 5887 5885 5884 5882 5880 5878 5876 5874 5872 5871 5869 5867
5912 5913 5915 5916 5918 5918 5919 5919 5919 5919 5919 5919 5918 5918 5917 5913 5911 5910 5908 5906 5905 5904 5902 5900 5899 5897 5896 5894 5892 5891 5889 5887 5886 5884 5882 5880 5879 5877 5874 5872 5870 5868 5866 5864
5909 5910 5912 5914 5915 5916 5917 5918 5917 5917 5917 5918 5917 5917 5916 5913 5910 5909 5907 5905 5904 5902 5901 5899 5898 5896 5895 5893 5891 5890 5888 5886 5884 5882 5881 5879 5877 5875 5872 5870 5868 5866 5864 5862
5906 5908 5910 5911 5913 5914 5915 5916 5918 5918 5918 5917 5915 5914 5914 5910 5908 5907 5905 5904 5902 5901 5900 5898 5896 5895 5893 5891 5890 5888 5886 5885 5883 5881 5879 5877 5875 5873 5871 5868 5866 5864 5862 5860
5904 5907 5907 5909 5910 5912 5912 5914 5916 5917 5917 5916 5913 5911 5911 5908 5906 5904 5903 5902 5901 5899 5898 5896 5895 5893 5892 5890 5888 5887 5885 5883 5881 5879 5877 5875 5873 5871 5869 5866 5864 5862 5859 5857
5902 5904 5905 5905 5907 5909 5910 5910 5912 5913 5913 5913 5912 5909 5907 5905 5904 5902 5901 5900 5899 5897 5896 5895 5893 5891 5890 5888 5887 5885 5883 5881 5879 5877 5876 5874 5871 5869 5866 5864 5862 5860 5857 5855
5897 5900 5901 5902 5904 5905 5907 5908 5909 5910 5910 5910 5910 5908 5906 5903 5901 5900 5899 5897 5896 5895 5894 5892 5891 5889 5888 5887 5885 5883 5881 5879 5877 5875 5873 5871 5869 5867 5864 5862 5859 5857 5855 5852
5893 5896 5898 5899 5900 5902 5903 5904 5904 5906 5906 5907 5907 5908 5903 5900 5899 5898 5896 5895 5894 5893 5892 5890 5889 5887 5886 5884 5883 5881 5879 5877 5875 5873 5871 5869 5866 5864 5862 5859 5857 5855 5852 5850
5888 5892 5894 5896 5897 5898 5899 5900 5901 5903 5902 5902 5903 5905 5899 5897 5896 5895 5894 5892 5891 5890 5889 5888 5886 5885 5884 5882 5880 5879 5876 5874 5872 5870 5868 5866 5864 5861 5859 5857 5855 5852 5850 5847
5883 5887 5889 5892 5894 5894 5894 5895 5897 5898 5899 5898 5899 5901 5895 5893 5892 5892 5891 5889 5888 5887 5886 5885 5884 5882 5881 5879 5878 5876 5874 5872 5870 5868 5866 5863 5861 5858 5856 5854 5852 5849 5847 5844
5878 5881 5885 5888 5889 5889 5890 5891 5891 5893 5894 5895 5894 5894 5891 5890 5889 5888 5887 5886 5885 5884 5883 5882 5880 5879 5878 5876 5875 5873 5871 5869 5867 5865 5863 5860 5858 5856 5853 5851 5848 5846 5843 5841
5872 5875 5877 5880 5882 5883 5884 5885 5886 5887 5889 5890 5889 5888 5888 5886 5885 5884 5883 5882 5881 5880 5879 5878 5877 5876 5875 5873 5871 5870 5867 5866 5864 5862 5859 5857 5855 5852 5850 5847 5845 5842 5840 5837
5867 5869 5871 5873 5875 5876 5878 5879 5881 5882 5882 5883 5883 5883 5882 5881 5880 5879 5878 5878 5877 5876 5875 5874 5873 5872 5871 5869 5868 5866 5864 5862 5860 5858 5856 5853 5851 5848 5846 5843 5841 5838 5836 5833
5860 5863 5865 5868 5868 5870 5871 5874 5875 5875 5876 5877 5878 5878 5876 5876 5875 5874 5874 5873 5872 5871 5871 5870 5869 5868 5867 5865 5864 5862 5860 5858 5856 5854 5851 5849 5846 5844 5842 5839 5837 5834 5832 5829
5854 5856 5858 5861 5862 5863 5868 5867 5868 5869 5870 5871 5871 5870 5870 5870 5870 5869 5868 5868 5867 5866 5865 5865 5864 5863 5862 5860 5859 5857 5856 5854 5852 5848 5846 5844 5842 5839 5837 5835 5832 5830 5827 5824
5847 5849 5852 5854 5855 5857 5858 5859 5861 5862 5862 5863 5864 5864 5864 5864 5864 5863 5863 5862 5862 5861 5860 5859 5858 5857 5856 5855 5854 5852 5850 5848 5846 5844 5842 5839 5837 5834 5832 5830 5827 5825 5822 5819
5840 5842 5845 5846 5848 5851 5853 5853 5854 5856 5855 5857 5857 5858 5858 5858 5859 5858 5857 5856 5856 5855 5854 5854 5853 5852 5851 5849 5848 5846 5845 5843 5840 5838 5836 5834 5831 5829 5827 5824 5822 5819 5816 5813
5832 5834 5837 5839 5841 5844 5844 5845 5848 5850 5850 5850 5850 5851 5851 5852 5852 5852 5851 5850 5850 5849 5848 5848 5847 5846 5845 5844 5842 5840 5839 5837 5834 5832 5830 5828 5826 5823 5821 5819 5816 5814 5811 5808
5824 5827 5829 5831 5834 5838 5836 5838 5840 5841 5842 5843 5843 5844 5845 5845 5845 5845 5844 5844 5843 5842 5842 5841 5840 5839 5838 5837 5836 5834 5832 5830 5828 5826 5824 5821 5820 5817 5815 5813 5810 5807 5804 5801
5816 5819 5821 5823 5826 5827 5828 5830 5832 5833 5834 5835 5836 5836 5837 5837 5837 5837 5837 5837 5836 5836 5835 5834 5833 5832 5831 5830 5829 5827 5825 5823 5821 5819 5817 5815 5813 5811 5808 5806 5803 5800 5797 5794
5807 5810 5812 5814 5816 5818 5820 5821 5823 5825 5826 5827 5828 5828 5829 5829 5829 5830 5830 5830 5829 5828 5828 5827 5826 5825 5824 5823 5821 5820 5818 5816 5814 5812 5810 5808 5806 5804 5801 5799 5796 5793 5790 5787
5799 5802 5803 5805 5807 5809 5811 5813 5815 5816 5817 5818 5819 5820 5820 5821 5821 5822 5822 5822 5821 5821 5820 5819 5819 5818 5816 5815 5814 5812 5810 5808 5806 5805 5803 5801 5799 5797 5794 5791 5788 5785 5783 5780
5790 5792 5795 5796 5798 5800 5802 5804 5806 5807 5809 5810 5811 5812 5813 5813 5813 5814 5814 5814 5813 5813 5812 5812 5811 5810 5808 5807 5806 5804 5802 5801 5799 5797 5795 5793 5791 5789 5786 5783 5781 5777 5775 5772